• In Russia
  • List of Countries
  • For 7 days
  • Water Temperature
  • Satellite Maps
  • Weather Map
  • Weather Widgets
  • user-avatar
    Login

    Hourly Weather Shazagay

    Today, 25 April, Thursday

    Time Temperature Precipitation Wind Pressure Humidity
    00:00 -1°C° 0 mm 2 mps 681 mmHg 34%
    01:00 0°C° 0 mm 1 mps 681 mmHg 35%
    02:00 0°C° 0 mm 1 mps 681 mmHg 34%
    03:00 0°C° 0 mm 1 mps 681 mmHg 33%
    04:00 -1°C° 0 mm 1 mps 681 mmHg 32%
    05:00 +1°C° 0 mm 1 mps 681 mmHg 30%
    06:00 +3°C° 0 mm 1 mps 681 mmHg 28%
    07:00 +5°C° 0 mm 1 mps 681 mmHg 26%
    08:00 +7°C° 0 mm 1 mps 682 mmHg 27%
    09:00 +9°C° 0 mm 1 mps 682 mmHg 27%
    10:00 +11°C° 0 mm 1 mps 682 mmHg 28%
    11:00 +12°C° 0 mm 1 mps 682 mmHg 26%
    12:00 +12°C° 0 mm 2 mps 682 mmHg 25%
    13:00 +13°C° 0 mm 2 mps 681 mmHg 23%
    14:00 +13°C° 0 mm 2 mps 681 mmHg 23%
    15:00 +13°C° 0 mm 2 mps 681 mmHg 23%
    16:00 +13°C° 0 mm 2 mps 681 mmHg 22%
    17:00 +11°C° 0 mm 1 mps 681 mmHg 26%
    18:00 +9°C° 0 mm 1 mps 680 mmHg 30%
    19:00 +7°C° 0 mm 0 mps 680 mmHg 34%
    20:00 +7°C° 0 mm 1 mps 680 mmHg 36%
    21:00 +6°C° 0 mm 1 mps 681 mmHg 38%
    22:00 +4°C° 0 mm 2 mps 681 mmHg 40%
    23:00 +4°C° 0 mm 2 mps 681 mmHg 44%

    Tomorrow, 26 April, Friday

    Time Temperature Precipitation Wind Pressure Humidity
    00:00 +3°C° 0 mm 2 mps 680 mmHg 48%
    01:00 +3°C° 0 mm 2 mps 680 mmHg 52%
    02:00 +3°C° 0 mm 2 mps 680 mmHg 56%
    03:00 +1°C° 0 mm 3 mps 680 mmHg 61%
    04:00 +1°C° 0 mm 3 mps 679 mmHg 65%
    05:00 +3°C° 0 mm 3 mps 679 mmHg 58%
    06:00 +4°C° 0 mm 4 mps 679 mmHg 50%
    07:00 +6°C° 0 mm 4 mps 678 mmHg 43%
    08:00 +8°C° 0 mm 5 mps 678 mmHg 39%
    09:00 +9°C° 0 mm 5 mps 677 mmHg 35%
    10:00 +11°C° 0 mm 6 mps 677 mmHg 30%
    11:00 +14°C° 0 mm 6 mps 677 mmHg 30%
    12:00 +15°C° 0 mm 6 mps 676 mmHg 29%
    13:00 +16°C° 0 mm 7 mps 676 mmHg 29%
    14:00 +15°C° 0 mm 6 mps 676 mmHg 34%
    15:00 +14°C° 0 mm 6 mps 676 mmHg 39%
    16:00 +13°C° 0 mm 6 mps 676 mmHg 44%
    17:00 +10°C° 0.5 mm 5 mps 677 mmHg 52%
    18:00 +9°C° 0.5 mm 3 mps 677 mmHg 60%
    19:00 +8°C° 0.5 mm 1 mps 678 mmHg 68%
    20:00 +7°C° 0 mm 1 mps 679 mmHg 70%
    21:00 +6°C° 0 mm 1 mps 679 mmHg 73%
    22:00 +4°C° 0 mm 0 mps 680 mmHg 75%
    23:00 +4°C° 0 mm 0 mps 680 mmHg 77%

    Day after tomorrow, 27 April, Saturday

    Time Temperature Precipitation Wind Pressure Humidity
    00:00 +5°C° 0 mm 1 mps 680 mmHg 78%
    01:00 +4°C° 0 mm 1 mps 681 mmHg 79%
    02:00 +4°C° 0 mm 1 mps 680 mmHg 80%
    03:00 +4°C° 0 mm 1 mps 680 mmHg 81%
    04:00 +3°C° 0 mm 1 mps 680 mmHg 81%
    05:00 +5°C° 0 mm 1 mps 681 mmHg 76%
    06:00 +6°C° 0 mm 1 mps 681 mmHg 70%
    07:00 +8°C° 0 mm 1 mps 681 mmHg 65%
    08:00 +8°C° 0 mm 2 mps 681 mmHg 56%
    09:00 +10°C° 0 mm 2 mps 681 mmHg 48%
    10:00 +13°C° 0 mm 2 mps 681 mmHg 40%
    11:00 +14°C° 0 mm 2 mps 680 mmHg 34%
    12:00 +16°C° 0 mm 3 mps 680 mmHg 29%
    13:00 +17°C° 0 mm 3 mps 680 mmHg 23%
    14:00 +17°C° 0 mm 3 mps 679 mmHg 22%
    15:00 +17°C° 0 mm 3 mps 678 mmHg 20%
    16:00 +17°C° 0 mm 3 mps 678 mmHg 19%
    17:00 +16°C° 0 mm 3 mps 678 mmHg 22%
    18:00 +14°C° 0 mm 2 mps 677 mmHg 25%
    19:00 +12°C° 0 mm 1 mps 677 mmHg 28%
    20:00 +11°C° 0.1 mm 1 mps 677 mmHg 35%
    21:00 +10°C° 0.1 mm 1 mps 678 mmHg 42%
    22:00 +9°C° 0.1 mm 1 mps 678 mmHg 50%
    23:00 +9°C° 0.2 mm 1 mps 678 mmHg 56%

    28 April, Sunday

    Time Temperature Precipitation Wind Pressure Humidity
    00:00 +8°C° 0.2 mm 1 mps 678 mmHg 62%
    01:00 +6°C° 0.2 mm 0 mps 678 mmHg 68%
    02:00 +6°C° 0.1 mm 0 mps 678 mmHg 74%
    03:00 +5°C° 0.1 mm 0 mps 677 mmHg 79%
    04:00 +4°C° 0.1 mm 0 mps 677 mmHg 84%
    05:00 +5°C° 0 mm 0 mps 677 mmHg 79%
    06:00 +8°C° 0 mm 1 mps 677 mmHg 73%
    07:00 +9°C° 0 mm 1 mps 677 mmHg 68%
    08:00 +11°C° 0 mm 1 mps 677 mmHg 60%
    09:00 +13°C° 0 mm 2 mps 677 mmHg 51%
    10:00 +15°C° 0 mm 2 mps 677 mmHg 42%
    11:00 +16°C° 0 mm 2 mps 677 mmHg 36%
    12:00 +17°C° 0 mm 2 mps 676 mmHg 31%
    13:00 +18°C° 0 mm 3 mps 676 mmHg 25%
    14:00 +18°C° 0 mm 3 mps 676 mmHg 23%
    15:00 +18°C° 0 mm 3 mps 675 mmHg 21%
    16:00 +18°C° 0 mm 3 mps 675 mmHg 20%
    17:00 +13°C° 0.1 mm 5 mps 675 mmHg 33%
    18:00 +9°C° 0.1 mm 7 mps 675 mmHg 46%
    19:00 +3°C° 0.1 mm 10 mps 675 mmHg 59%
    20:00 +1°C° 0.1 mm 10 mps 677 mmHg 62%
    21:00 -2°C° 0.1 mm 10 mps 679 mmHg 65%
    22:00 -4°C° 0.1 mm 10 mps 680 mmHg 68%
    23:00 -5°C° 1 mm 10 mps 682 mmHg 71%

    29 April, Monday

    Time Temperature Precipitation Wind Pressure Humidity
    00:00 -6°C° 1 mm 9 mps 683 mmHg 73%
    01:00 -7°C° 1 mm 8 mps 684 mmHg 76%
    02:00 -6°C° 0.1 mm 6 mps 685 mmHg 69%
    03:00 -6°C° 0.1 mm 5 mps 686 mmHg 63%
    04:00 -5°C° 0.1 mm 4 mps 687 mmHg 57%
    05:00 -6°C° 0 mm 5 mps 687 mmHg 53%
    06:00 -6°C° 0 mm 6 mps 688 mmHg 49%
    07:00 -7°C° 0 mm 7 mps 688 mmHg 45%
    08:00 -4°C° 0 mm 7 mps 688 mmHg 41%
    09:00 -3°C° 0 mm 7 mps 688 mmHg 37%
    10:00 -2°C° 0 mm 6 mps 688 mmHg 33%
    11:00 -1°C° 0 mm 6 mps 688 mmHg 30%
    12:00 +1°C° 0 mm 6 mps 688 mmHg 28%
    13:00 +2°C° 0 mm 5 mps 687 mmHg 25%
    14:00 +3°C° 0 mm 5 mps 687 mmHg 25%
    15:00 +4°C° 0 mm 4 mps 687 mmHg 24%
    16:00 +5°C° 0 mm 4 mps 687 mmHg 23%
    17:00 +3°C° 0 mm 3 mps 686 mmHg 27%
    18:00 +2°C° 0 mm 2 mps 686 mmHg 31%
    19:00 +2°C° 0 mm 1 mps 686 mmHg 34%
    20:00 +1°C° 0 mm 1 mps 686 mmHg 36%
    21:00 +1°C° 0 mm 1 mps 687 mmHg 38%
    22:00 0°C° 0 mm 1 mps 687 mmHg 39%
    23:00 -2°C° 0 mm 2 mps 687 mmHg 42%

    30 April, Tuesday

    Time Temperature Precipitation Wind Pressure Humidity
    00:00 -3°C° 0 mm 2 mps 687 mmHg 44%
    01:00 -3°C° 0 mm 2 mps 686 mmHg 47%
    02:00 -3°C° 0 mm 2 mps 686 mmHg 49%
    03:00 -4°C° 0 mm 2 mps 686 mmHg 50%
    04:00 -4°C° 0 mm 2 mps 686 mmHg 52%
    05:00 -2°C° 0 mm 2 mps 686 mmHg 47%
    06:00 +1°C° 0 mm 2 mps 686 mmHg 43%
    07:00 +3°C° 0 mm 2 mps 686 mmHg 38%
    08:00 +6°C° 0 mm 2 mps 686 mmHg 35%
    09:00 +8°C° 0 mm 2 mps 685 mmHg 31%
    10:00 +10°C° 0 mm 3 mps 685 mmHg 28%
    11:00 +12°C° 0 mm 3 mps 685 mmHg 26%
    12:00 +13°C° 0 mm 3 mps 684 mmHg 24%
    13:00 +14°C° 0 mm 3 mps 683 mmHg 22%
    14:00 +16°C° 0 mm 3 mps 683 mmHg 21%
    15:00 +16°C° 0 mm 3 mps 683 mmHg 20%
    16:00 +16°C° 0 mm 3 mps 682 mmHg 19%
    17:00 +14°C° 0 mm 2 mps 682 mmHg 24%
    18:00 +12°C° 0 mm 1 mps 681 mmHg 28%
    19:00 +10°C° 0 mm 1 mps 681 mmHg 32%
    20:00 +9°C° 0 mm 1 mps 681 mmHg 34%
    21:00 +8°C° 0 mm 1 mps 681 mmHg 35%
    22:00 +6°C° 0 mm 2 mps 681 mmHg 36%
    23:00 +5°C° 0 mm 2 mps 681 mmHg 38%
    Show more